Location: Madrid
(40.4167°N, 3.7036°W)
Time: 13:51:02
(UTC+00:00)

ISS - Pass Details

Date: 05 April 2024
Orbit: 413 x 419 km, 51.6° (Epoch: 13 April)

Event Time Altitude Azimuth Distance (km) Brightness Sun altitude
Rises 18:51:29 0° 287° (WNW) 2,356 2.9 -2.2°
Reaches altitude 10° 18:54:44 10° 253° (WSW) 1,489 0.2 -2.9°
Maximum altitude 18:55:57 12° 231° (SW) 1,396 -0.5 -3.1°
Drops below altitude 10° 18:57:09 10° 210° (SSW) 1,487 -0.7 -3.3°
Sets 19:00:23 0° 176° (S) 2,345 -0.1 -3.9°
